Location: Ferme V�ronneau
(45.1425°N, 71.8745°W)
Time: 14:59:42
(UTC-05:00)

Tiangong 2 - Visible Passes

Search period start: 16 December 2018 00:00
Search period end: 26 December 2018 00:00
Orbit: 383 x 391 km, 42.8° (Epoch: 16 December)

Date Brightness Start Highest point End Pass type
(mag) Time Alt. Az. Time Alt. Az. Time Alt. Az.
19 Dec 3.5 18:06:09 10° S 18:07:19 14° S 18:07:19 14° S visible
20 Dec 3.9 18:42:53 10° SW 18:43:38 15° SW 18:43:38 15° SW visible
21 Dec 2.6 17:44:29 10° SSW 17:47:06 24° SSE 17:47:39 22° SE visible
22 Dec 3.4 16:46:26 10° SSW 16:48:29 16° SSE 16:50:32 10° ESE visible
22 Dec 2.6 18:21:47 10° WSW 18:23:52 32° SW 18:23:52 32° SW visible
23 Dec 2.2 17:23:11 10° SW 17:26:06 34° SSE 17:27:49 19° ESE visible
23 Dec 4.4 18:59:32 10° W 19:00:05 14° WSW 19:00:05 14° WSW visible
24 Dec 1.4 18:00:46 10° WSW 18:03:52 53° S 18:04:00 52° SSE visible
25 Dec 1.9 17:02:04 10° WSW 17:05:07 44° SSE 17:07:56 11° E visible
25 Dec 3.3 18:38:36 10° W 18:40:12 26° WSW 18:40:12 26° WSW visible
